This demonstration page uses our WeatherBlox Daily Observations layout. Learn more.

38.88101, -77.10428

Hourly Observations for September 24, 2015

Temp ( °F °C ) Dew Point ( °F °C ) Humidity (%) Winds ( mph kmh ) Pressure ( in mb ) Visibility ( mi km ) Precip ( " mm )
12:52 am 00:52 Mostly Cloudy 65 18.3 54 12.2 68 68 N 5 7 30.23 1024 10 16.0934 0 0
1:52 am 01:52 Mostly Cloudy 64 17.8 56 13.3 75 75 N 3 6 30.23 1024 10 16.0934 0 0
2:52 am 02:52 Cloudy 64 17.8 55 12.8 73 73 ENE 5 7 30.23 1024 10 16.0934 0 0
3:52 am 03:52 Mostly Cloudy 61 16.1 55 12.8 81 81 N 6 9 30.23 1024 10 16.0934 0 0
4:52 am 04:52 Partly Cloudy 60 15.6 55 12.8 84 84 N 7 11 30.23 1024 10 16.0934 0 0
5:52 am 05:52 Mostly Cloudy 60 15.6 55 12.8 84 84 N 3 6 30.23 1024 10 16.0934 0 0
6:52 am 06:52 Mostly Cloudy 60 15.6 56 13.3 86 86 N 5 7 30.25 1024 10 16.0934 0 0
7:52 am 07:52 Mostly Cloudy 62 16.7 56 13.3 80 80 N 3 6 30.27 1025 10 16.0934 0 0
8:52 am 08:52 Mostly Cloudy 65 18.3 58 14.4 78 78 NE 3 6 30.28 1025 10 16.0934 0 0
9:52 am 09:52 Mostly Cloudy 70 21.1 56 13.3 61 61 NNE 7 11 30.29 1026 10 16.0934 0 0
10:52 am 10:52 Mostly Cloudy 72 22.2 52 11.1 50 50 NE 9 15 30.28 1026 10 16.0934 0 0
11:52 am 11:52 Mostly Cloudy 76 24.4 52 11.1 43 43 NE 10 17 30.27 1025 10 16.0934 0 0
12:52 pm 12:52 Cloudy 78 25.6 50 10 37 37 NE 14 22 30.27 1025 10 16.0934 0 0
1:52 pm 13:52 Cloudy 78 25.6 47 8.3 33 33 ENE 14 22 30.27 1025 10 16.0934 0 0
2:52 pm 14:52 Cloudy 79 26.1 48 8.9 34 34 ENE 12 19 30.26 1025 10 16.0934 0 0
3:52 pm 15:52 Mostly Cloudy 77 25 49 9.4 37 37 ENE 14 22 30.25 1025 10 16.0934 0 0
4:52 pm 16:52 Mostly Cloudy 78 25.6 51 10.6 39 39 NE 15 24 30.25 1025 10 16.0934 0 0
5:52 pm 17:52 Mostly Cloudy 76 24.4 52 11.1 43 43 ENE 10 17 30.25 1024 10 16.0934 0 0
6:52 pm 18:52 Mostly Cloudy 75 23.9 52 11.1 45 45 ENE 6 9 30.25 1024 10 16.0934 0 0
7:52 pm 19:52 Mostly Cloudy 73 22.8 53 11.7 50 50 NE 6 9 30.25 1024 10 16.0934 0 0
8:52 pm 20:52 Mostly Cloudy 71 21.7 55 12.8 57 57 ENE 7 11 30.27 1025 10 16.0934 0 0
9:52 pm 21:52 Mostly Cloudy 70 21.1 54 12.2 57 57 ENE 7 11 30.28 1025 10 16.0934 0 0
10:52 pm 22:52 Mostly Cloudy 69 20.6 55 12.8 61 61 NE 8 13 30.28 1025 10 16.0934 0 0
11:52 pm 23:52 Mostly Cloudy 68 20 54 12.2 61 61 NE 7 11 30.29 1026 10 16.0934 0 0

Powered by AerisWeather